[[{"header":{"parameterUnit":"m.s-1","parameterCategory":1,"la1":30.2991,"la2":30.254,"lo1":-89.0895,"lo2":-89.0444,"dy":0.0017,"dx":0.0017,"nx":28,"ny":28,"refTime":"2024-10-10T09:00:00:Z","depth":0,"parameterNumber":2,"parameterNumberName":"U-component_of_WINDS"},"data":[0,0,0,0,0,0,0,0,0,0,0,0,0,0,0,0,0,0,0,0,0,0,0,0,0,0,0,0,0,0,0,0,0,0,0,0,0,0,0,0,0,0,0,0,0,0,0,0,0,0,0,0,0,0,0,0,0,0,-4.2364,-4.2366,0,-4.2501,-4.2503,-4.2504,-4.2422,-4.2418,-4.2414,-4.241,-4.255,-4.2558,-4.2565,0,0,0,0,0,0,0,0,0,0,0,0,0,-4.203,-4.2037,-4.2364,-4.2366,-4.2368,-4.2501,-4.2503,-4.2505,-4.2423,-4.2418,-4.2413,-4.2409,-4.2548,-4.2557,-4.2566,0,0,0,0,0,0,0,0,0,0,0,0,0,-4.2172,-4.2039,-4.2364,-4.2343,-4.2342,-4.2501,-4.2503,-4.2505,-4.2424,-4.2418,-4.2412,-4.2406,-4.2545,-4.2556,-4.2567,-4.2754,0,0,-4.2601,-4.2606,0,0,0,0,0,0,0,0,-4.2164,-4.2185,-4.2344,-4.2344,-4.2344,-4.2438,-4.2436,-4.2589,-4.2425,-4.2393,-4.241,-4.2403,-4.2518,-4.2531,-4.257,-4.276,-4.2766,-4.2602,-4.2608,-4.2613,-4.2616,0,0,0,0,0,0,0,-4.2155,-4.2178,-4.2418,-4.2347,-4.2347,-4.2326,-4.234,-4.2465,-4.2487,-4.2395,-4.2389,-4.2407,-4.2517,-4.2559,-4.2572,-4.2768,-4.2601,-4.2611,-4.2618,-4.2622,-4.3118,-4.3124,0,0,0,0,0,0,-4.2146,-4.2171,-4.2414,-4.2423,-4.2238,-4.2337,-4.2352,-4.2414,-4.2485,-4.249,-4.2412,-4.2402,-4.2543,-4.2559,-4.2577,-4.2798,-4.2613,-4.2624,-4.263,-4.3111,-4.3119,-4.3126,0,0,0,0,0,0,-4.214,-4.2169,-4.2409,-4.2295,-4.2324,-4.2349,-4.2419,-4.242,-4.2462,-4.2498,-4.2501,-4.2451,-4.2539,-4.2561,-4.271,-4.2802,-4.2629,-4.2639,-4.3104,-4.3114,-4.3123,-4.3245,0,0,0,0,0,0,-4.213,-4.2167,-4.2238,-4.2297,-4.233,-4.254,-4.2425,-4.2427,-4.2482,-4.2471,-4.2535,-4.2541,-4.2536,-4.2694,-4.2721,-4.2814,-4.2647,-4.3095,-4.3108,-4.312,-4.3232,-4.3257,-4.3279,0,0,0,0,0,-4.2119,-4.2268,-4.2242,-4.2272,-4.242,-4.2545,-4.2564,-4.2556,-4.2489,-4.2561,-4.2584,-4.2538,-4.2789,-4.271,-4.274,-4.2838,-4.3089,-4.3105,-4.3119,-4.3222,-4.3252,-4.3278,0,0,0,0,0,0,-4.2219,-4.2275,-4.2248,-4.242,-4.2479,-4.2531,-4.2621,-4.2589,-4.2667,-4.2654,-4.2641,-4.2656,-4.2811,-4.284,-4.2751,-4.3022,-4.2928,-4.295,-4.2997,-4.3026,-4.3049,-4.3037,-4.2657,0,0,0,0,0,-4.2261,-4.2358,-4.2402,-4.255,-4.2581,-4.2597,-4.2651,-4.2639,-4.2699,-4.2724,-4.2757,-4.2817,-4.2909,-4.2969,-4.3056,-4.3237,-4.3249,-4.3319,-4.3343,-4.3361,-4.3379,-4.3475,-4.3506,-4.3174,-4.3174,-4.3174,0,0,-4.2349,-4.2392,-4.2454,-4.2571,-4.2615,-4.2715,-4.2618,-4.2728,-4.2802,-4.274,-4.2882,-4.2909,-4.2975,-4.314,-4.3215,-4.3169,-4.3474,-4.338,-4.3395,-4.3402,-4.3493,-4.3525,-4.3552,-4.3184,-4.3182,-4.3181,0,0,-4.2559,-4.2603,-4.2729,-4.2776,-4.2844,-4.2853,-4.2884,-4.2942,-4.2957,-4.31,-4.3055,-4.3143,-4.3302,-4.335,-4.3395,-4.3625,-4.3585,-4.3654,-4.3773,-4.3867,-4.3893,-4.3916,-4.3996,-4.4025,-4.3672,-4.3672,-4.3673,0,-4.266,-4.2809,-4.2799,-4.2913,-4.2965,-4.2914,-4.3042,-4.3087,-4.318,-4.3217,-4.3165,-4.3363,-4.3404,-4.3578,-4.3634,-4.3674,-4.3707,-4.3645,-4.389,-4.3913,-4.3935,-4.401,-4.4041,-4.368,-4.3679,-4.3678,-4.3678,0,-4.2928,-4.3032,-4.3127,-4.3217,-4.328,-4.3401,-4.3408,-4.3474,-4.3458,-4.3473,-4.3618,-4.3665,-4.376,-4.3801,-4.3787,-4.3974,-4.3943,-4.3892,-4.3797,-4.3974,-4.4045,-4.4074,-4.3691,-4.3688,-4.3686,-4.3684,0,0,-4.3203,-4.3287,-4.3321,-4.3361,-4.3433,-4.3513,-4.3631,-4.3723,-4.3779,-4.3845,-4.3942,-4.4079,-4.4031,-4.4082,-4.4073,-4.4156,-4.4332,-4.4093,-4.4095,-4.4134,-4.4539,-4.4575,-4.4609,-4.4307,-4.4313,-4.4317,-4.4532,0,-4.3416,-4.3621,-4.3616,-4.3807,-4.3902,-4.3856,-4.3958,-4.4013,-4.4031,-4.4114,-4.4133,-4.4229,-4.416,-4.419,-4.427,-4.4293,-4.4412,-4.4278,-4.4396,-4.44,-4.4378,-4.4646,-4.4685,-4.4885,-4.456,-4.4565,-4.4568,0,-4.3691,-4.3766,-4.3966,-4.4022,-4.4062,-4.4154,-4.4238,-4.4319,-4.438,-4.4387,-4.4445,-4.4422,-4.4541,-4.4446,-4.4609,-4.4518,-4.4566,-4.4585,-4.4592,-4.46,-4.4493,-4.4658,-4.4949,-4.4978,-4.4612,-4.4609,-4.4605,0,-4.3868,-4.4019,-4.4158,-4.4194,-4.4264,-4.433,-4.4362,-4.4417,-4.4473,-4.4547,-4.4582,-4.467,-4.4716,-4.4784,-4.4785,-4.4716,-4.495,-4.4855,-4.4957,-4.4957,-4.5005,-4.5002,-4.5305,-4.5042,-4.5042,-4.5041,-4.5041,0,-4.4104,-4.4228,-4.4238,-4.4323,-4.446,-4.4453,-4.4589,-4.4615,-4.4665,-4.4753,-4.472,-4.4804,-4.4803,-4.4888,-4.4891,-4.5024,-4.5046,-4.5054,-4.5052,-4.5055,-4.5054,-4.5084,-4.5069,-4.5049,-4.5047,-4.5046,-4.5045,0,-4.4324,-4.4336,-4.4484,-4.4538,-4.4555,-4.4653,-4.4699,-4.478,-4.4795,-4.4908,-4.4934,-4.4958,-4.5056,-4.5065,-4.5181,-4.5182,-4.5342,-4.5328,-4.5321,-4.5318,-4.5418,-4.5407,-4.5749,-4.5792,-4.5504,-4.5507,-4.551,0,-4.4472,-4.4566,-4.463,-4.4687,-4.4723,-4.4816,-4.4872,-4.487,-4.493,-4.5007,-4.5078,-4.5174,-4.5249,-4.541,-4.5437,-4.5524,-4.5509,-4.5623,-4.5522,-4.5521,-4.5507,-4.55,-4.5509,-4.5641,-4.5645,-4.5647,-4.5649,0,-4.4733,-4.4734,-4.4817,-4.4902,-4.497,-4.5038,-4.51,-4.5149,-4.5154,-4.5223,-4.5324,-4.5383,-4.55,-4.5595,-4.5681,-4.5713,-4.5682,-4.5681,-4.5709,-4.5711,-4.5702,-4.5705,-4.5371,-4.5673,-4.567,-4.5669,-4.5667,-4.5666,-4.4919,-4.4999,-4.5057,-4.515,-4.5197,-4.5257,-4.5334,-4.5359,-4.5443,-4.5538,-4.5532,-4.5642,-4.5701,-4.5813,-4.5852,-4.5939,-4.59,-4.5941,-4.5951,-4.596,-4.5969,-4.5692,-4.5955,-4.5954,-4.5953,-4.5953,-4.5952,0,-4.5175,-4.521,-4.5296,-4.5384,-4.5458,-4.5423,-4.5491,-4.5554,-4.5651,-4.5709,-4.5784,-4.5899,-4.5991,-4.6026,-4.6116,-4.6178,-4.6166,-4.6201,-4.6195,-4.6202,-4.6,-4.5965,-4.6209,-4.6209,-4.6209,-4.6209,-4.6209,-4.6209,-4.5317,-4.545,-4.5459,-4.5616,-4.565,-4.5757,-4.5799,-4.5853,-4.5898,-4.6028,-4.6104,-4.6127,-4.6175,-4.6268,-4.635,-4.6358,-4.6391,-4.6432,-4.6434,-4.6243,-4.6217,-4.6192,-4.6159,-4.6441,-4.6441,-4.6629,-4.6631,-4.6632]},{"header":{"parameterUnit":"m.s-1","parameterCategory":1,"la1":30.2991,"la2":30.254,"lo1":-89.0895,"lo2":-89.0444,"dy":0.0017,"dx":0.0017,"nx":28,"ny":28,"refTime":"2024-10-10T09:00:00:Z","depth":0,"parameterNumber":3,"parameterNumberName":"V-component_of_WINDS"},"data":[0,0,0,0,0,0,0,0,0,0,0,0,0,0,0,0,0,0,0,0,0,0,0,0,0,0,0,0,0,0,0,0,0,0,0,0,0,0,0,0,0,0,0,0,0,0,0,0,0,0,0,0,0,0,0,0,0,0,-0.4781,-0.4781,0,-0.4793,-0.4793,-0.4793,-0.4803,-0.4803,-0.4803,-0.4803,-0.4816,-0.4817,-0.4817,0,0,0,0,0,0,0,0,0,0,0,0,0,-0.4766,-0.4766,-0.4781,-0.4781,-0.4781,-0.4793,-0.4793,-0.4793,-0.4803,-0.4803,-0.4803,-0.4803,-0.4816,-0.4816,-0.4817,0,0,0,0,0,0,0,0,0,0,0,0,0,-0.4775,-0.4766,-0.4781,-0.4787,-0.4788,-0.4793,-0.4793,-0.4793,-0.4803,-0.4803,-0.4803,-0.4803,-0.4816,-0.4816,-0.4817,-0.4816,0,0,-0.4818,-0.4818,0,0,0,0,0,0,0,0,-0.4774,-0.4775,-0.4786,-0.4787,-0.4787,-0.4796,-0.4793,-0.4801,-0.4803,-0.4797,-0.4803,-0.4803,-0.481,-0.4811,-0.4812,-0.4817,-0.4817,-0.4818,-0.4818,-0.4818,-0.4819,0,0,0,0,0,0,0,-0.4774,-0.4775,-0.4785,-0.4786,-0.4787,-0.479,-0.4791,-0.4794,-0.4802,-0.4798,-0.4798,-0.48,-0.481,-0.4812,-0.4813,-0.4818,-0.4818,-0.4818,-0.4819,-0.4819,-0.4822,-0.4822,0,0,0,0,0,0,-0.4772,-0.4774,-0.4785,-0.4786,-0.4781,-0.479,-0.4791,-0.4793,-0.4802,-0.4804,-0.4799,-0.48,-0.4811,-0.4812,-0.4813,-0.4813,-0.4818,-0.4819,-0.4819,-0.4822,-0.4822,-0.4822,0,0,0,0,0,0,-0.4772,-0.4773,-0.4785,-0.478,-0.4782,-0.479,-0.4792,-0.4794,-0.4796,-0.4804,-0.4805,-0.48,-0.4812,-0.4813,-0.4815,-0.4814,-0.4819,-0.4819,-0.4822,-0.4822,-0.4822,-0.4813,0,0,0,0,0,0,-0.4771,-0.4773,-0.4772,-0.478,-0.4782,-0.4786,-0.4792,-0.4794,-0.4796,-0.4797,-0.4805,-0.4806,-0.4812,-0.4815,-0.4816,-0.4815,-0.482,-0.4823,-0.4822,-0.4822,-0.4814,-0.4813,-0.4812,0,0,0,0,0,-0.4771,-0.477,-0.4772,-0.4774,-0.4782,-0.4786,-0.4787,-0.4794,-0.4796,-0.4796,-0.4801,-0.4806,-0.4814,-0.4815,-0.4816,-0.4815,-0.4823,-0.4822,-0.4822,-0.4814,-0.4813,-0.4812,0,0,0,0,0,0,-0.4762,-0.4771,-0.4774,-0.4776,-0.478,-0.4788,-0.4788,-0.4792,-0.4796,-0.4797,-0.4804,-0.4806,-0.4808,-0.4812,-0.4813,-0.4815,-0.4819,-0.4819,-0.4812,-0.4811,-0.4811,-0.481,-0.482,0,0,0,0,0,-0.476,-0.4763,-0.477,-0.4771,-0.4773,-0.478,-0.4782,-0.4786,-0.4791,-0.4793,-0.4799,-0.4804,-0.4807,-0.4809,-0.4813,-0.4814,-0.4816,-0.4814,-0.4813,-0.4812,-0.4812,-0.4813,-0.4812,-0.4821,-0.4821,-0.4821,0,0,-0.4757,-0.4762,-0.4763,-0.477,-0.4774,-0.4776,-0.4782,-0.4784,-0.4786,-0.4794,-0.4797,-0.4801,-0.4807,-0.4808,-0.4809,-0.4812,-0.481,-0.4812,-0.4811,-0.4812,-0.4813,-0.4812,-0.4811,-0.482,-0.4821,-0.4821,0,0,-0.4752,-0.4756,-0.4757,-0.4761,-0.4767,-0.4771,-0.4771,-0.4778,-0.4781,-0.4784,-0.479,-0.4792,-0.4798,-0.4802,-0.4805,-0.4801,-0.4805,-0.4801,-0.4797,-0.4798,-0.4797,-0.4797,-0.4795,-0.4795,-0.4801,-0.4801,-0.4801,0,-0.4748,-0.4752,-0.4757,-0.4759,-0.4762,-0.4769,-0.477,-0.4773,-0.478,-0.4781,-0.4784,-0.4791,-0.4795,-0.4798,-0.4797,-0.4799,-0.4799,-0.4801,-0.4797,-0.4796,-0.4796,-0.4795,-0.4794,-0.4801,-0.4801,-0.4801,-0.4801,0,-0.4746,-0.4748,-0.4748,-0.4754,-0.4757,-0.4758,-0.4764,-0.4766,-0.477,-0.4774,-0.4777,-0.4782,-0.4787,-0.4788,-0.4791,-0.4791,-0.4792,-0.4795,-0.4799,-0.4794,-0.4793,-0.4793,-0.48,-0.48,-0.4801,-0.4801,0,0,-0.4737,-0.4745,-0.4745,-0.4748,-0.4754,-0.4756,-0.4758,-0.4762,-0.4764,-0.4768,-0.477,-0.4774,-0.4777,-0.478,-0.4785,-0.4785,-0.4781,-0.4788,-0.4789,-0.4787,-0.4781,-0.4779,-0.4778,-0.4784,-0.4784,-0.4784,-0.4781,0,-0.4733,-0.4737,-0.4742,-0.4743,-0.4746,-0.4752,-0.4753,-0.4757,-0.4761,-0.4764,-0.4768,-0.4771,-0.4774,-0.4776,-0.4777,-0.4782,-0.478,-0.4782,-0.4786,-0.4786,-0.4785,-0.4778,-0.4775,-0.4772,-0.478,-0.478,-0.478,0,-0.473,-0.4733,-0.4735,-0.4741,-0.4742,-0.4744,-0.4748,-0.475,-0.4755,-0.4757,-0.476,-0.4765,-0.4767,-0.477,-0.4773,-0.4774,-0.4776,-0.4778,-0.4778,-0.478,-0.4783,-0.4779,-0.4771,-0.4771,-0.478,-0.478,-0.478,0,-0.4724,-0.4729,-0.4731,-0.4733,-0.4739,-0.474,-0.4743,-0.4748,-0.475,-0.4753,-0.4755,-0.4759,-0.4761,-0.4764,-0.4769,-0.4771,-0.4772,-0.4775,-0.4774,-0.4774,-0.4775,-0.4775,-0.4767,-0.4775,-0.4775,-0.4775,-0.4775,0,-0.472,-0.4721,-0.4728,-0.4729,-0.473,-0.4736,-0.4737,-0.474,-0.4744,-0.4746,-0.4751,-0.4753,-0.476,-0.4762,-0.4766,-0.4768,-0.4769,-0.4771,-0.4773,-0.4771,-0.4771,-0.4773,-0.4774,-0.4775,-0.4775,-0.4775,-0.4775,0,-0.4713,-0.4718,-0.472,-0.4726,-0.4728,-0.4728,-0.4733,-0.4735,-0.4738,-0.4741,-0.4742,-0.4748,-0.4751,-0.4756,-0.4761,-0.4764,-0.4765,-0.4767,-0.4763,-0.4764,-0.4763,-0.4763,-0.4757,-0.4757,-0.4764,-0.4764,-0.4764,0,-0.4711,-0.4711,-0.4717,-0.4719,-0.4721,-0.4724,-0.4726,-0.4731,-0.4733,-0.4738,-0.4739,-0.4742,-0.4745,-0.475,-0.4755,-0.4758,-0.4761,-0.4758,-0.4761,-0.476,-0.4761,-0.4761,-0.4761,-0.4758,-0.4758,-0.4758,-0.4757,0,-0.4706,-0.4708,-0.471,-0.4714,-0.4716,-0.4719,-0.4722,-0.4723,-0.4729,-0.4731,-0.4734,-0.4736,-0.4741,-0.4744,-0.4749,-0.4752,-0.4756,-0.4756,-0.4756,-0.4755,-0.4753,-0.4755,-0.4762,-0.4757,-0.4757,-0.4757,-0.4757,-0.4757,-0.4701,-0.4702,-0.4706,-0.4709,-0.4712,-0.4715,-0.4716,-0.472,-0.4722,-0.4726,-0.4729,-0.4732,-0.4736,-0.4742,-0.4745,-0.4747,-0.4749,-0.4749,-0.4749,-0.4749,-0.4749,-0.4752,-0.4748,-0.4748,-0.4748,-0.4748,-0.4748,0,-0.4697,-0.4699,-0.4702,-0.4706,-0.4708,-0.4711,-0.4714,-0.4716,-0.4719,-0.4722,-0.4725,-0.4728,-0.4731,-0.4736,-0.474,-0.4741,-0.4743,-0.4741,-0.4742,-0.4742,-0.4747,-0.4747,-0.474,-0.474,-0.474,-0.474,-0.474,-0.474,-0.4695,-0.4696,-0.4699,-0.4702,-0.4705,-0.4707,-0.4709,-0.4712,-0.4714,-0.4718,-0.472,-0.4723,-0.4727,-0.4731,-0.4734,-0.4735,-0.4737,-0.4735,-0.4737,-0.4741,-0.4742,-0.4743,-0.4743,-0.4735,-0.4735,-0.4733,-0.4733,-0.4733]}]]